Hourly Data Report for June 25, 2021

WESTERN HEAD
NOVA SCOTIA
Current Station Operator: ECCC - MSC

43°59'24.070" N
64°39'51.008" W
10.10 m
8206240
71411
WWE

Download Data

Hourly Data (June 2021)
Hourly Data Report for June 25, 2021
TIME
LST
Temp Definition
°C
Dew Point Definition
°C
Rel Hum Definition
%
Precip. Amount Definition
mm

Wind Dir Definition
10's deg

Wind Spd Definition
km/h
Visibility Definition
km
Stn Press Definition
kPa
Hmdx Definition


Wind Chill Definition


Weather Definition


00:00 8.1 6.1 87 0.0 24 2   103.11     LegendNANA
01:00 7.3 6.7 96 0.0 26 6   103.11     LegendNANA
02:00 6.7 6.7 100 0.0 0 1   103.06     LegendNANA
03:00 5.1 LegendMM LegendMM 0.0 1 4   103.06     LegendNANA
04:00 7.6 LegendMM LegendMM 0.0 1 10   103.04     LegendNANA
05:00 7.9 LegendMM LegendMM 0.0 36 10   103.07     LegendNANA
06:00 10.3 LegendMM LegendMM 0.0 1 8   103.07     LegendNANA
07:00 12.5 LegendMM LegendMM 0.0 1 8   103.06     LegendNANA
08:00 15.0 13.8 93 0.0 2 6   103.07     LegendNANA
09:00 16.1 13.6 85 0.0 4 6   103.03     LegendNANA
10:00 16.3 13.7 84 0.0 4 5   103.03     LegendNANA
11:00 17.0 13.2 78 0.0 6 5   103.04     LegendNANA
12:00 16.5 13.3 81 0.0 8 3   103.02     LegendNANA
13:00 15.5 15.5 100 0.0 9 2   103.00     LegendNANA
14:00 16.0 LegendMM LegendMM 0.0 4 6   102.95     LegendNANA
15:00 14.7 LegendMM LegendMM 0.0 3 5   102.88     LegendNANA
16:00 14.3 LegendMM LegendMM 1.3 4 7   102.82     LegendNANA
17:00 14.1 LegendMM LegendMM 0.0 1 7   102.78     LegendNANA
18:00 13.9 LegendMM LegendMM 0.0 36 7   102.78     LegendNANA
19:00 13.6 LegendMM LegendMM 0.3 5 6   102.75     LegendNANA
20:00 13.6 LegendMM LegendMM 0.2 1 6   102.74     LegendNANA
21:00 13.9 LegendMM LegendMM 0.3 3 4   102.74     LegendNANA
22:00 14.7 LegendMM LegendMM 0.2 17 3   102.74     LegendNANA
23:00 14.1 LegendMM LegendMM 0.2 18 8   102.71     LegendNANA

Notes on Data Quality.

Legend

  • E = Estimated
  • M = Missing
  • NA = Not Available*
  • [empty] = Indicates an unobserved value
Date modified: